Location: *
(28.3744°N, 81.5492°W)
Time: 13:33:10
(UTC+00:00)

FENGYUN 3A - Pass Details

Date: 15 June 2025
Orbit: 820 x 834 km, 98.6° (Epoch: 16 July)

Event Time Altitude Azimuth Distance (km) Brightness Sun altitude
Rises 07:55:11 0° 2° (N) 3,354 7.6 -27.1°
Reaches altitude 10° 07:57:39 10° 355° (N) 2,419 6.6 -26.8°
Enters shadow 08:02:15 40° 298° (WNW) 1,196 4.3 -26.2°
